TimeCDT,TemperatureF,Dew PointF,Humidity,Sea Level PressureIn,VisibilityMPH,Wind Direction,Wind SpeedMPH,Gust SpeedMPH,PrecipitationIn,Events,Conditions,WindDirDegrees,DateUTC
12:56 AM,64.9,59.0,81,30.11,10.0,NE,5.8,-,N/A,,Clear,50,2012-10-04 05:56:00
1:56 AM,64.9,59.0,81,30.12,10.0,North,4.6,-,N/A,,Clear,10,2012-10-04 06:56:00
2:33 AM,62.6,59.0,88,30.16,10.0,NNE,3.5,-,N/A,,Partly Cloudy,30,2012-10-04 07:33:00
2:56 AM,63.0,59.0,87,30.12,10.0,NNE,5.8,-,N/A,,Partly Cloudy,30,2012-10-04 07:56:00
3:08 AM,64.4,59.0,83,30.16,10.0,NNE,5.8,-,N/A,,Mostly Cloudy,30,2012-10-04 08:08:00
3:39 AM,62.6,59.0,88,30.16,10.0,NNE,4.6,-,N/A,,Partly Cloudy,30,2012-10-04 08:39:00
3:56 AM,63.0,59.0,87,30.13,10.0,NNE,5.8,-,N/A,,Clear,30,2012-10-04 08:56:00
4:56 AM,62.1,60.1,93,30.14,10.0,ENE,4.6,-,N/A,,Partly Cloudy,60,2012-10-04 09:56:00
5:44 AM,62.6,60.8,94,30.19,3.0,NE,5.8,-,N/A,,Mostly Cloudy,50,2012-10-04 10:44:00
5:47 AM,62.6,60.8,94,30.19,1.8,NE,5.8,-,N/A,,Mostly Cloudy,50,2012-10-04 10:47:00
5:56 AM,62.1,61.0,96,30.16,1.0,NE,4.6,-,N/A,,Mist,40,2012-10-04 10:56:00
6:35 AM,62.6,60.8,94,30.21,3.0,NNE,3.5,-,N/A,,Overcast,30,2012-10-04 11:35:00
6:40 AM,62.6,60.8,94,30.22,1.8,North,3.5,-,N/A,,Overcast,10,2012-10-04 11:40:00
6:51 AM,62.6,60.8,94,30.22,0.5,North,3.5,-,N/A,Fog,Fog,360,2012-10-04 11:51:00
6:56 AM,62.1,61.0,96,30.18,0.5,North,3.5,-,N/A,Fog,Fog,360,2012-10-04 11:56:00
7:10 AM,62.6,60.8,94,30.22,1.8,NE,5.8,-,N/A,,Overcast,50,2012-10-04 12:10:00
7:13 AM,62.6,60.8,94,30.22,3.0,NE,5.8,-,N/A,,Overcast,40,2012-10-04 12:13:00
7:40 AM,62.6,62.6,100,30.22,1.8,NNE,4.6,-,N/A,,Overcast,30,2012-10-04 12:40:00
7:56 AM,63.0,62.1,97,30.19,1.2,NE,5.8,-,N/A,,Overcast,40,2012-10-04 12:56:00
8:28 AM,64.4,62.6,94,30.23,0.8,ENE,4.6,-,N/A,,Overcast,60,2012-10-04 13:28:00
8:56 AM,64.9,64.0,97,30.19,1.5,NNE,3.5,-,N/A,,Overcast,30,2012-10-04 13:56:00
9:00 AM,64.4,64.4,100,30.23,3.0,NE,3.5,-,N/A,,Overcast,40,2012-10-04 14:00:00
9:56 AM,72.0,66.0,81,30.19,10.0,Variable,3.5,-,N/A,,Scattered Clouds,0,2012-10-04 14:56:00
10:56 AM,79.0,64.9,62,30.19,10.0,NNE,6.9,-,N/A,,Clear,30,2012-10-04 15:56:00
11:56 AM,81.0,63.0,54,30.17,10.0,ENE,8.1,-,N/A,,Clear,60,2012-10-04 16:56:00
12:56 PM,82.9,61.0,47,30.15,10.0,NE,6.9,-,N/A,,Clear,50,2012-10-04 17:56:00
1:56 PM,82.9,60.1,46,30.13,10.0,ENE,5.8,-,N/A,,Clear,60,2012-10-04 18:56:00
2:56 PM,84.0,60.1,44,30.12,10.0,NE,5.8,-,N/A,,Clear,50,2012-10-04 19:56:00
3:44 PM,82.4,60.8,48,30.16,10.0,NE,8.1,-,N/A,,Partly Cloudy,50,2012-10-04 20:44:00
4:56 PM,82.9,62.1,49,30.11,10.0,ENE,5.8,-,N/A,,Clear,70,2012-10-04 21:56:00
5:56 PM,80.1,64.9,60,30.11,10.0,ENE,4.6,-,N/A,,Clear,70,2012-10-04 22:56:00
6:56 PM,75.9,64.0,67,30.11,10.0,ENE,4.6,-,N/A,,Clear,60,2012-10-04 23:56:00
7:56 PM,75.0,63.0,66,30.12,10.0,ENE,4.6,-,N/A,,Clear,70,2012-10-05 00:56:00
8:56 PM,70.0,63.0,78,30.13,10.0,NNE,3.5,-,N/A,,Clear,30,2012-10-05 01:56:00
9:56 PM,72.0,63.0,73,30.14,10.0,NE,4.6,-,N/A,,Clear,50,2012-10-05 02:56:00
10:56 PM,70.0,63.0,78,30.14,10.0,ENE,4.6,-,N/A,,Clear,60,2012-10-05 03:56:00
11:56 PM,69.1,62.1,78,30.12,10.0,ENE,4.6,-,N/A,,Clear,60,2012-10-05 04:56:00